Jesus Teran International Airport
MMAS : now visible

Airfield :











YOU CAN JOIN US ON...

 
LOGIN :

Register | Disclaimer

   EN    FR    IT 

 









Legend :    VFR   Marginal VFR   IFR   Intensive IFR   Very Intensive IFR
Visi :
Ceiling :
>= 8 km
>= 3000ft
5 to 8 km
1000 to 3000 ft
1500m to 5 km
500 to 1000 ft
800 to 1500m
200 to 500 ft
< 800m
< 200 ft
Symbols :   Thunderstorms  Fog  Heavy snow  Heavy precipitations  Wind > 20 kt






- Airport Elevation : 6112 ft
- IATA code : AGU


MMAS - Jesus Teran International

CURRENT METAR :
  • 171144Z 36010KT 10SM SKC 11/03 A3015 RMK SLP067

EXPIRED METARs :
  • 171043Z 36008KT 10SM SKC 11/03 A3014
  • 170946Z 02005KT 10SM SKC 12/03 A3015
  • 170841Z 04005KT 10SM SKC 14/03 A3017 RMK SLP///

TAF TAF MMAS
Valid from the 17 at 06:00 until the 18 at 06:00 UTC


170428Z 1706/1806 33005KT P6SM BKN200
FM171800 30008KT P6SM SCT250
FM180300 23005KT P6SM SCT250



MET'MAP, your aeronautical weather chart ! - Copyright ORBIFLY December 2007 - Disclaimer

ORBIFLY MET'MAP TEAM :

Programming & Development : Alexandra Zaïnal
Concept & original design : Baudouin d'Aumeries
Assistance for programming : Marc-Olivier Méhu
Technical & hardware support : Manuel Goepfert

Contact : metmap@orbifly.com




SOURCES & CREDITS :

   NOAA       Earth
Advisory